Tracking 25193 objects as of 19-Jan-2022
HD Live streaming from Space Station
objects crossing your sky now

FLOCK 4P 5

Track FLOCK 4P 5 now!
10-day predictions
FLOCK 4P 5 is classified as:


NORAD ID: 44818
Int'l Code: 2019-081Q
Perigee: 495.5 km
Apogee: 510.3 km
Inclination: 97.4 °
Period: 94.5 minutes
Semi major axis: 6873 km
RCS: Unknown
Launch date: November 27, 2019
Source: United States (US)
Launch site: SRIHARIKOTA (SRI)
aabbcc
Your satellite tracking list
Your tracking list is empty




NASA's NSSDC Master Catalog

Two Line Element Set (TLE):
1 44818U 19081Q   22018.41548367  .00009482  00000-0  40139-3 0  9998
2 44818  97.4242  85.1170 0010779  31.6707 328.5176 15.23342198119040
Source of the keplerian elements: AFSPC